Date,TemperatureHighF,TemperatureAvgF,TemperatureLowF,DewpointHighF,DewpointAvgF,DewpointLowF,HumidityHigh,HumidityAvg,HumidityLow,PressureMaxIn,PressureMinIn,WindSpeedMaxMPH,WindSpeedAvgMPH,GustSpeedMaxMPH,PrecipitationSumIn
2013-1-1,45,30,18,28,20,11,90,70,25,30.33,30.19,5,3,6,0.01
2013-1-2,50,34,22,27,21,17,83,62,31,30.25,30.09,6,3,9,0.00
2013-1-3,47,34,24,28,22,16,84,63,40,30.29,30.11,11,5,13,0.00
2013-1-4,46,32,23,28,23,19,89,72,44,30.38,30.26,6,3,8,0.00
2013-1-5,53,32,18,27,19,13,89,64,22,30.47,30.34,7,3,7,0.00
2013-1-6,52,34,21,24,19,15,87,59,25,30.38,30.13,6,4,6,0.00
2013-1-7,50,43,38,29,27,26,63,53,43,29.90,29.84,9,6,11,0.00
2013-1-8,59,42,29,30,22,14,79,49,17,30.11,29.88,15,4,17,0.00
2013-1-9,62,41,24,24,17,11,75,44,14,30.30,30.10,7,3,8,0.00
2013-1-10,62,44,22,27,19,14,75,42,19,30.12,29.82,18,7,28,0.00
2013-1-11,52,36,23,30,15,6,77,44,22,29.97,29.79,27,11,31,0.00
2013-1-12,38,25,13,12,6,-1,75,47,19,30.21,29.96,17,5,22,0.00
2013-1-13,40,23,8,9,4,-2,77,48,23,30.26,30.10,7,2,8,0.00
2013-1-14,37,24,14,8,3,0,65,43,21,30.27,30.14,13,3,15,0.00
2013-1-15,37,21,8,8,1,-4,72,46,18,30.52,30.27,7,3,10,0.00
2013-1-16,52,31,16,17,3,-1,54,33,14,30.55,30.39,6,3,8,0.00
2013-1-17,59,38,25,16,10,5,52,32,16,30.43,30.28,7,3,8,0.00
2013-1-18,61,40,26,28,17,13,66,43,16,30.36,30.19,7,4,7,0.00
2013-1-19,66,44,27,35,18,12,63,39,14,30.33,30.19,7,4,8,0.00
2013-1-20,68,46,29,35,22,16,61,42,22,30.24,30.05,6,4,8,0.00
2013-1-21,68,48,34,29,25,22,69,44,20,30.15,30.02,8,4,10,0.00
2013-1-22,70,48,32,31,24,18,69,44,14,30.21,30.09,7,3,7,0.00
2013-1-23,71,48,31,29,24,20,68,42,17,30.28,30.15,7,3,9,0.00
2013-1-24,64,51,42,43,33,24,72,51,31,30.22,30.13,9,2,9,0.00
2013-1-25,66,54,41,49,40,36,85,61,39,30.19,29.97,13,3,16,0.00
2013-1-26,66,56,50,53,48,43,92,76,47,29.97,29.80,18,10,24,0.14
2013-1-27,60,53,48,46,43,41,88,71,55,29.94,29.86,9,3,11,0.00
2013-1-28,56,46,35,44,37,30,87,72,44,29.91,29.78,23,10,27,0.06
2013-1-29,44,35,30,30,24,16,92,66,35,30.21,29.90,24,12,28,0.05
2013-1-30,50,36,23,25,20,10,83,58,24,30.38,30.21,8,3,10,0.00
2013-1-31,56,38,24,29,24,19,81,59,30,30.32,30.20,7,4,8,0.00
2013-2-1,63,43,27,36,25,20,77,54,24,30.29,30.17,8,4,9,0.00
2013-2-2,68,45,27,32,23,13,78,48,12,30.31,30.17,7,3,9,0.00
2013-2-3,60,50,42,37,27,20,67,43,22,30.19,29.93,11,3,11,0.00
2013-2-4,64,50,36,38,34,30,80,58,33,30.02,29.89,8,2,9,0.00
2013-2-5,67,50,34,39,34,29,88,58,27,30.02,29.88,8,3,19,0.00
2013-2-6,65,48,34,38,32,28,89,58,25,30.01,29.87,14,4,16,0.00
2013-2-7,64,46,31,38,30,25,89,58,25,30.09,29.97,6,2,9,0.00
2013-2-8,66,51,33,28,17,-2,72,33,8,29.98,29.72,19,7,24,0.00
2013-2-9,50,40,32,30,23,17,86,52,32,30.02,29.66,25,12,28,0.01
2013-2-10,54,36,19,25,16,6,86,51,15,30.08,29.95,13,3,15,0.00
2013-2-11,48,33,20,31,20,11,90,62,29,30.16,29.97,17,6,24,0.01
2013-2-12,46,33,20,29,20,8,87,64,21,30.28,30.16,8,3,11,0.02
2013-2-13,55,35,18,24,16,10,84,53,17,30.29,30.14,6,2,9,0.00
2013-2-14,61,40,22,23,18,10,77,46,15,30.20,30.06,13,4,19,0.00
2013-2-15,63,44,29,22,16,4,64,37,10,30.22,30.15,13,5,18,0.00
2013-2-16,67,45,27,18,12,3,57,32,8,30.20,30.20,10,4,15,0.00
2013-2-17,69,47,24,18,10,0,57,28,8,30.20,30.20,21,6,31,0.00
2013-2-18,63,47,28,26,13,9,47,26,12,30.20,29.90,7,2,11,0.00
2013-2-19,61,48,30,38,24,10,69,41,20,29.90,29.90,24,9,30,0.00
2013-2-20,49,38,27,29,25,16,92,64,29,29.90,29.90,34,9,45,0.00
2013-2-21,44,35,22,33,27,19,90,76,51,29.90,29.90,12,3,15,0.05
2013-2-22,50,38,26,33,27,21,90,67,33,29.90,29.90,15,4,23,0.00
2013-2-23,62,42,22,29,23,15,87,54,18,29.90,29.90,14,3,14,0.00
2013-2-24,47,39,22,25,17,3,69,43,20,29.90,29.90,31,11,36,0.00
2013-2-25,55,37,20,18,13,6,71,40,14,29.90,29.90,12,3,14,0.00
2013-2-26,61,40,19,20,12,1,77,40,9,29.90,29.90,15,4,18,0.00
2013-2-27,56,39,21,15,8,2,63,32,12,29.90,29.90,8,3,8,0.00
2013-2-28,59,41,24,10,6,-1,49,26,9,29.90,29.90,8,3,11,0.00
2013-3-1,67,45,23,24,13,7,51,30,13,29.90,29.90,15,4,17,0.00
2013-3-2,75,51,32,30,18,14,60,32,10,30.31,29.90,7,3,12,0.00
2013-3-3,58,38,32,26,18,15,54,44,23,30.28,30.28,6,2,8,0.00
2013-3-4,68,58,39,28,22,11,51,27,13,30.28,30.28,28,14,32,0.00
2013-3-5,72,53,30,34,23,14,75,38,11,30.28,30.28,15,4,21,0.00
2013-3-6,78,60,45,30,25,17,46,28,12,30.28,30.28,18,5,22,0.00
2013-3-7,73,58,37,32,22,14,58,28,11,30.28,30.28,15,5,22,0.00
2013-3-8,59,51,39,45,34,20,85,55,29,30.28,29.70,26,11,38,0.18
2013-3-9,49,42,36,35,30,25,84,64,46,30.05,29.70,23,8,25,0.03
2013-3-10,57,44,34,36,31,24,85,62,31,30.05,30.05,12,4,17,0.00
2013-3-11,67,47,29,34,27,12,85,51,17,30.05,30.05,7,2,8,0.00
2013-3-12,75,52,31,34,24,14,78,42,10,30.11,30.01,7,2,8,0.00
2013-3-13,78,57,37,39,22,11,59,30,8,30.15,30.01,6,3,8,0.00
2013-3-14,81,58,40,33,19,3,47,26,5,30.13,30.07,7,4,7,0.00
2013-3-15,85,62,40,31,17,-5,46,23,3,30.13,30.13,16,4,21,0.00
2013-3-16,81,64,46,32,20,7,41,21,6,30.13,30.13,17,4,25,0.00
2013-3-18,75,68,54,32,18,9,30,16,8,30.13,30.13,16,6,25,0.00
2013-3-19,73,66,50,35,25,19,40,22,14,29.92,29.92,17,8,21,0.00
2013-3-20,77,67,46,33,26,16,57,24,10,30.02,30.00,14,5,15,0.00
2013-3-21,74,70,61,30,23,11,30,18,9,29.70,29.70,17,10,20,0.00
2013-3-22,74,67,54,30,23,13,36,20,11,29.63,29.63,23,12,32,0.00
2013-3-23,68,58,42,29,16,6,43,22,9,29.63,29.63,21,10,26,0.00
2013-3-24,46,40,34,12,9,8,35,28,22,29.63,29.63,5,1,5,0.00
2013-3-25,70,58,35,28,16,8,39,20,9,29.63,29.63,7,2,11,0.00
2013-3-26,44,42,37,19,13,9,40,31,25,29.63,29.63,6,3,7,0.00
2013-3-27,-200,0,200,-100,-100,-100,0,0,100,0.00,40.00,0,0,0,0.00
2013-3-28,-200,0,200,-100,-100,-100,0,0,100,0.00,40.00,0,0,0,0.00
2013-3-29,-200,0,200,-100,-100,-100,0,0,100,0.00,40.00,0,0,0,0.00
2013-3-30,76,17,48,32,-67,-100,42,7,13,29.89,-32.77,9,-3,13,0.02
2013-3-31,78,61,40,37,24,19,51,27,11,29.89,29.89,12,3,18,0.00
2013-4-1,79,64,43,33,25,16,47,25,10,29.89,29.89,16,5,21,0.00
2013-4-2,73,58,42,34,16,-8,51,24,4,29.89,29.85,17,6,26,0.00
2013-4-3,75,58,36,32,20,9,46,25,9,29.86,29.86,12,3,18,0.00
2013-4-4,82,62,40,38,17,1,49,23,5,29.86,29.86,8,3,14,0.00
2013-4-5,83,67,46,34,20,10,40,18,7,29.86,29.86,17,7,23,0.00
2013-4-6,80,67,52,35,27,21,40,23,12,29.86,29.86,15,6,25,0.00
2013-4-7,80,67,46,40,28,19,56,26,12,29.86,29.86,15,6,21,0.00
2013-4-8,78,65,53,35,30,24,45,28,15,29.86,29.86,33,12,51,0.00
2013-4-9,58,49,39,39,28,18,84,47,21,29.86,29.86,27,12,32,0.03
2013-4-10,62,51,36,30,22,18,62,34,20,29.86,29.86,17,6,22,0.00
2013-4-11,74,56,33,29,22,12,59,30,9,29.86,29.86,11,4,14,0.00
2013-4-12,75,58,41,33,22,17,43,27,12,29.86,29.86,11,2,11,0.00
2013-4-13,78,63,40,34,21,16,45,23,10,29.86,29.86,15,6,21,0.00
2013-4-14,78,66,53,33,27,19,38,25,11,29.86,29.86,18,9,24,0.00
2013-4-15,80,67,54,35,28,18,42,26,10,29.86,29.62,19,7,24,0.00
2013-4-16,80,68,58,39,25,6,43,23,6,29.62,29.62,24,11,30,0.00
2013-4-17,63,56,41,39,24,8,47,30,16,29.62,29.62,32,13,42,0.00
2013-4-18,64,49,30,15,6,-3,38,20,7,29.62,29.62,10,4,17,0.00
2013-4-19,71,52,33,18,1,-9,28,15,4,29.62,29.62,9,4,14,0.00
2013-4-20,78,59,34,15,4,-4,27,12,5,29.62,29.62,16,5,20,0.00
2013-4-21,83,64,41,18,11,-6,30,15,3,29.62,29.62,12,3,15,0.00
2013-4-30,87,76,70,24,13,-100,17,10,5,29.61,-32.77,19,-3,25,0.00
2013-5-1,84,70,47,30,15,4,33,15,5,29.61,29.61,15,5,22,0.00
2013-5-2,79,65,48,28,20,10,35,18,11,29.61,29.61,15,5,20,0.00
2013-5-3,78,59,42,27,17,7,50,22,7,29.61,29.61,10,3,14,0.00
2013-5-4,85,68,45,32,18,9,27,16,7,29.61,29.61,17,5,25,0.00
2013-5-5,83,72,61,33,26,15,28,19,8,29.61,29.61,16,7,30,0.00
2013-5-6,78,66,54,45,36,28,70,35,16,29.61,29.61,19,6,28,0.01
2013-5-7,79,65,47,38,30,23,53,29,14,29.61,29.61,18,5,26,0.00
2013-5-8,77,64,48,37,28,18,50,29,12,29.84,29.61,17,6,24,0.00
2013-5-9,78,66,52,41,31,19,55,30,11,29.84,29.84,13,4,20,0.00
2013-5-10,75,62,46,39,30,24,48,32,16,29.84,29.84,25,3,31,0.02
2013-5-11,76,62,46,40,34,29,59,38,21,29.84,29.84,16,6,22,0.00
2013-5-12,80,65,46,39,31,23,56,31,14,29.84,29.84,21,6,28,0.00
2013-5-13,84,68,47,34,24,11,41,21,7,29.84,29.84,20,5,26,0.00
2013-5-14,87,72,49,37,30,20,43,23,12,29.84,29.84,20,4,27,0.00
2013-5-15,88,77,60,37,30,25,35,19,10,29.84,29.84,18,9,29,0.00
2013-5-16,90,77,58,33,22,11,34,15,6,29.84,29.84,16,7,23,0.00
2013-5-17,88,74,53,37,22,4,35,17,5,29.84,29.84,15,6,24,0.00
2013-5-18,85,73,54,36,23,3,36,18,5,29.84,29.84,19,8,37,0.00
2013-5-19,85,70,52,40,28,14,51,25,7,29.84,29.84,18,6,25,0.00
2013-5-20,85,71,53,37,25,13,43,20,7,29.84,29.84,23,7,32,0.00
2013-5-21,88,71,46,27,14,-3,39,14,3,29.84,29.84,13,4,20,0.00
2013-5-22,92,76,52,28,15,9,26,11,5,29.84,29.84,12,4,22,0.00
2013-5-23,92,77,53,30,15,0,25,12,3,29.84,29.84,16,5,22,0.00
2013-5-24,92,76,53,40,18,-9,41,15,2,29.84,29.84,14,5,21,0.00
2013-5-25,91,75,51,31,16,7,28,12,5,29.84,29.84,16,5,25,0.00
2013-5-26,90,75,52,32,12,-2,27,11,3,29.84,29.84,19,6,27,0.00
2013-5-27,92,73,50,22,8,-11,23,10,3,29.84,29.84,14,4,21,0.00
2013-5-28,89,74,51,29,15,-3,31,13,3,29.84,29.84,20,7,27,0.00
2013-5-29,86,74,58,38,27,18,33,19,8,29.84,29.84,16,7,25,0.00
2013-5-30,90,77,61,50,38,28,60,29,12,29.84,29.60,16,6,21,0.00
2013-5-31,93,78,61,52,41,29,61,30,11,29.60,29.60,14,5,20,0.00
2013-6-1,97,79,56,38,29,14,39,19,5,29.60,29.60,9,3,14,0.00
2013-6-2,99,84,62,38,31,23,32,17,7,29.60,29.60,16,6,25,0.00
2013-6-3,95,81,60,39,24,2,42,15,4,29.60,29.60,15,5,21,0.00
2013-6-4,96,81,61,38,31,24,34,17,9,29.69,29.60,17,6,24,0.00
2013-6-5,94,79,59,37,22,5,35,15,4,29.69,29.69,14,4,20,0.00
2013-6-6,95,79,56,35,16,0,31,12,3,29.69,29.69,7,2,9,0.00
2013-6-7,98,80,61,38,28,14,32,16,6,29.69,29.69,13,3,16,0.00
2013-6-8,99,85,65,35,23,15,23,12,5,29.69,29.69,20,7,28,0.00
2013-6-9,98,84,67,39,25,14,30,14,5,29.69,29.69,16,6,22,0.00
2013-6-10,100,83,60,33,23,17,22,12,6,29.69,29.69,11,4,20,0.00
2013-6-11,101,85,61,31,23,14,24,11,5,29.69,29.69,14,6,21,0.00
2013-6-12,101,86,64,44,26,22,25,12,6,29.69,29.69,14,5,18,0.00
2013-6-13,98,86,72,42,36,28,27,18,11,29.69,29.69,18,7,23,0.00
2013-6-14,96,81,65,52,44,34,44,28,15,29.69,29.69,16,4,18,0.00
2013-6-15,92,76,65,64,51,42,81,46,22,29.69,29.69,14,2,17,0.11
2013-6-16,94,78,60,60,49,31,84,43,17,29.69,29.69,13,4,21,0.00
2013-6-17,97,82,61,38,28,18,35,16,6,29.69,29.69,15,5,26,0.00
2013-6-18,98,81,58,44,4,-100,29,11,1,29.69,29.69,16,5,23,0.00
2013-6-19,84,79,70,17,12,9,13,8,6,29.69,29.69,7,2,11,0.00
2013-6-20,98,88,73,34,12,-19,20,7,1,29.69,29.69,21,8,36,0.00
2013-6-21,98,81,60,42,24,3,36,15,3,29.69,29.69,22,6,30,0.00
2013-6-22,96,83,65,34,21,11,31,12,5,29.69,29.69,21,9,28,0.00
2013-6-23,77,71,64,29,27,24,26,19,14,29.69,29.69,8,5,9,0.00
2013-6-24,84,79,74,35,27,23,21,15,12,29.69,29.69,12,8,12,0.00
2013-6-25,96,81,60,42,25,13,42,16,6,29.69,29.69,15,5,21,0.00
2013-6-26,97,82,63,34,21,11,27,12,5,29.69,29.69,12,5,18,0.00
2013-6-27,100,84,66,38,26,16,23,13,7,29.69,29.69,15,7,25,0.00
2013-6-28,101,85,66,43,31,26,23,15,8,29.69,29.69,15,2,23,0.00
2013-6-29,102,85,68,52,39,31,31,20,10,29.69,29.69,7,2,12,0.00
2013-6-30,102,87,76,58,44,38,49,25,12,29.69,29.46,21,5,31,0.02
2013-7-1,95,83,68,58,53,45,68,38,18,29.64,29.64,12,3,19,0.01
2013-7-2,91,78,64,61,56,49,86,53,25,29.64,29.64,23,6,35,0.38
2013-7-3,93,79,64,63,58,50,87,52,24,29.85,29.64,26,2,30,0.01
2013-7-4,96,81,68,63,56,49,81,45,22,29.81,29.81,23,5,30,0.00
2013-7-5,92,76,68,65,60,53,81,60,33,29.81,29.81,20,5,23,0.19
2013-7-6,94,77,64,64,59,54,89,58,26,29.81,29.81,16,2,16,0.00
2013-7-7,98,82,68,63,57,50,75,47,20,29.81,29.81,16,4,18,0.00
2013-7-8,94,81,71,62,58,52,71,49,24,29.81,29.81,14,2,18,0.00
2013-7-9,93,80,67,66,62,58,90,58,32,29.81,29.81,17,5,26,0.04
2013-7-10,90,81,72,67,64,59,83,58,37,29.82,29.82,15,3,15,0.04
2013-7-11,86,74,66,68,65,60,93,75,46,29.82,29.82,15,3,16,0.08
2013-7-12,89,76,63,66,62,56,91,64,34,29.82,29.69,22,3,24,0.15
2013-7-13,92,79,69,66,61,54,87,57,28,29.80,29.65,21,3,25,0.15
2013-7-14,94,80,69,67,61,55,88,57,27,29.78,29.64,19,4,25,0.00
2013-7-15,91,76,67,68,62,58,90,65,34,29.80,29.59,20,2,22,0.63
2013-7-16,76,68,65,66,64,62,94,87,63,29.95,29.79,13,2,14,0.61
2013-7-17,86,73,64,65,60,52,95,67,32,29.99,29.84,0,0,0,0.00
2013-7-18,79,72,63,62,59,58,85,66,49,29.93,29.80,0,0,0,0.00
2013-7-19,80,73,67,63,62,59,84,69,51,29.88,29.73,13,1,15,0.00
2013-7-20,83,72,64,67,63,60,89,73,47,29.80,29.68,17,2,22,0.03
2013-7-21,86,74,64,66,63,59,93,71,43,29.83,29.71,18,3,21,0.00
2013-7-22,87,76,67,66,62,58,88,64,39,29.84,29.74,17,4,20,0.00
2013-7-23,89,76,66,65,62,58,90,64,37,29.82,29.65,17,5,22,0.06
2013-7-24,86,74,66,67,64,60,93,73,43,29.79,29.69,11,1,13,0.01
2013-7-25,86,74,69,68,66,62,92,76,47,29.91,29.69,13,2,17,0.09
2013-7-26,89,76,68,69,64,60,90,71,38,29.99,29.87,22,3,25,0.00
2013-7-27,83,73,65,67,63,59,93,73,45,29.92,29.72,14,2,18,0.00
2013-7-28,91,78,63,66,59,50,90,57,27,29.80,29.68,16,3,20,0.00
2013-7-29,92,79,66,62,55,48,76,47,23,29.88,29.69,11,3,15,0.00
2013-7-30,95,80,64,60,52,47,73,40,20,29.97,29.83,8,2,11,0.00
2013-7-31,91,80,69,63,57,51,64,47,28,29.91,29.77,13,2,14,0.00
2013-8-1,76,70,65,66,62,58,90,76,59,29.89,29.78,11,2,10,0.64
2013-8-2,85,72,62,67,63,56,93,75,44,29.87,29.77,22,2,25,0.00
2013-8-3,91,77,61,67,60,56,93,60,31,29.86,29.73,10,2,12,0.00
2013-8-4,89,78,70,65,60,54,81,55,33,29.82,29.70,9,3,17,0.00
2013-8-5,83,71,63,65,60,55,90,71,40,29.89,29.72,17,4,26,0.11
2013-8-6,77,68,60,66,62,58,94,82,59,29.88,29.80,20,2,26,0.62
2013-8-7,85,72,58,64,57,52,95,64,37,29.91,29.78,10,3,16,0.00
2013-8-8,90,73,58,60,54,46,88,55,22,29.86,29.81,7,2,10,0.00
2013-8-9,91,75,57,58,52,47,79,48,24,29.83,29.75,9,2,16,0.00
2013-8-10,90,75,62,62,55,46,81,54,25,29.75,29.75,20,2,26,0.00
2013-8-11,88,74,65,64,60,58,82,64,39,29.84,29.75,17,2,20,0.00
2013-8-12,92,75,64,66,61,56,84,64,36,29.84,29.84,28,3,28,0.00
2013-8-13,91,76,63,72,61,56,84,64,36,29.84,29.84,14,2,23,0.21
2013-8-14,92,81,70,65,61,55,79,54,33,29.84,29.84,16,2,17,0.01
2013-8-15,92,80,66,65,60,54,86,55,31,29.84,29.84,5,1,6,0.00
2013-8-16,95,79,62,65,58,51,83,52,27,29.84,29.84,9,2,11,0.00
2013-8-17,97,81,63,66,53,42,77,43,16,29.84,29.84,10,2,16,0.00
2013-8-18,95,80,65,59,53,48,65,41,20,29.84,29.84,22,3,25,0.00
2013-8-19,95,80,65,57,52,48,65,41,21,29.84,29.84,11,2,18,0.00
2013-8-20,95,79,68,61,56,50,77,47,24,29.84,29.84,21,3,23,0.00
2013-8-21,89,77,65,61,57,53,77,52,31,29.84,29.84,13,3,14,0.00
2013-8-22,93,78,62,61,54,45,78,48,20,29.84,29.84,13,3,16,0.00
2013-8-23,92,76,61,63,54,48,90,51,23,29.84,29.84,12,3,17,0.18
2013-8-24,79,70,63,64,61,58,93,74,52,29.84,29.76,10,2,13,0.08
2013-8-25,87,72,63,68,64,60,92,77,42,29.76,29.76,21,2,21,0.04
2013-8-26,92,78,66,67,60,52,92,58,29,29.76,29.76,13,4,18,0.00
2013-8-27,90,76,61,62,56,50,75,52,26,29.76,29.76,12,2,14,0.02
2013-8-28,84,73,63,67,60,56,90,67,43,29.76,29.76,15,2,17,0.11
2013-8-29,79,69,66,67,64,63,95,87,59,29.84,29.76,14,1,16,0.18
2013-8-30,78,70,64,67,64,60,96,83,57,29.94,29.83,8,1,8,0.01
2013-8-31,90,75,60,66,60,56,93,64,34,29.94,29.76,10,3,16,0.01
2013-9-1,92,79,62,63,58,48,86,52,27,29.76,29.67,7,2,10,0.00
2013-9-2,94,79,66,63,57,50,79,51,23,29.71,29.60,8,2,13,0.00
2013-9-3,93,78,66,60,57,55,70,51,28,29.61,29.61,8,2,11,0.00
2013-9-5,93,78,67,65,57,48,71,52,23,29.79,29.61,10,4,27,0.14
2013-9-6,88,75,63,58,55,51,76,53,29,29.91,29.76,15,3,22,0.00
2013-9-7,84,71,64,62,60,56,92,71,44,29.86,29.68,21,2,23,0.40
2013-9-8,80,67,63,65,62,59,94,86,57,29.78,29.64,25,2,27,0.27
2013-9-9,74,67,64,65,63,62,95,89,68,29.71,29.67,13,2,15,0.12
2013-9-10,82,70,62,65,60,55,95,72,40,29.78,29.67,11,2,15,0.01
2013-9-11,82,69,57,62,56,49,93,66,32,29.84,29.75,7,2,11,0.00
2013-9-12,66,64,60,63,59,55,90,85,74,29.78,29.76,5,1,5,0.05
2013-9-13,85,72,62,66,62,57,96,74,39,29.76,29.76,9,2,13,0.01
2013-9-14,87,72,60,64,60,52,95,68,31,29.76,29.61,7,1,8,0.01
2013-9-15,89,75,63,60,58,54,87,58,32,29.61,29.61,9,2,12,0.00
2013-9-16,88,74,61,61,58,56,84,60,34,29.74,29.61,13,3,15,0.00
2013-9-17,90,74,60,62,57,51,89,59,27,29.74,29.65,8,2,10,0.00
2013-9-18,92,76,61,62,54,40,85,50,24,29.74,29.61,7,2,11,0.00
2013-9-19,90,75,59,58,50,38,63,44,28,29.63,29.63,8,2,13,0.00
2013-9-20,88,71,60,63,56,50,81,62,32,29.63,29.63,24,3,37,0.21
2013-9-21,87,71,55,58,54,47,91,58,26,29.63,29.63,7,1,13,0.00
2013-9-22,87,74,60,61,52,43,76,48,30,29.63,29.63,18,7,30,0.00
2013-9-23,84,66,49,49,40,28,71,43,14,29.63,29.63,5,2,6,0.00
2013-9-24,89,70,47,42,36,26,60,33,13,29.63,29.63,13,3,15,0.00
2013-9-25,89,73,50,43,34,27,54,26,15,29.63,29.63,14,4,20,0.00
2013-9-26,86,74,57,53,36,-100,52,28,17,29.63,-32.77,14,0,21,0.00
2013-9-27,75,68,55,54,45,32,60,44,32,0.00,-32.77,12,5,19,0.00
2013-9-28,80,63,47,42,36,29,61,39,23,0.00,-32.77,9,2,15,0.00
2013-9-29,84,66,48,41,37,34,63,36,18,0.00,-32.77,7,2,11,0.00
2013-9-30,85,66,46,41,33,27,64,34,12,0.00,-32.77,11,3,16,0.00
2013-10-1,85,67,45,37,32,27,51,30,13,0.00,-32.77,7,2,12,0.00
2013-10-2,85,68,48,41,36,32,60,33,15,29.82,-32.77,12,3,14,0.00
2013-10-3,86,69,48,45,37,28,65,34,13,29.81,29.81,15,5,28,0.00
2013-10-4,81,68,54,48,40,33,71,39,19,29.81,29.81,13,5,21,0.00
2013-10-5,75,59,42,33,25,19,51,29,16,29.81,29.81,8,2,13,0.00
2013-10-6,79,59,40,29,21,18,43,25,11,29.81,29.81,5,2,10,0.00
2013-10-7,84,62,39,30,25,19,45,27,13,29.81,29.81,10,2,15,0.00
2013-10-8,83,67,48,37,31,26,47,27,16,29.81,29.81,12,3,20,0.00
2013-10-9,80,69,55,46,36,27,45,31,17,29.81,29.81,13,5,24,0.00
2013-10-10,69,61,42,42,38,32,76,45,28,29.81,29.81,23,8,31,0.00
2013-10-11,73,54,36,41,35,30,89,55,22,29.81,29.81,5,2,8,0.00
2013-10-12,82,62,40,38,32,25,70,39,13,29.81,29.81,14,3,21,0.00
2013-10-13,85,68,47,47,39,33,67,39,18,29.81,29.81,16,4,23,0.00
2013-10-14,77,65,53,51,43,33,73,48,27,29.81,29.81,13,4,21,0.00
2013-10-15,78,62,42,42,34,25,66,38,24,29.81,29.81,14,5,19,0.00
2013-10-16,75,57,39,28,20,11,51,26,10,29.81,29.81,11,2,14,0.00
2013-10-17,76,55,34,25,15,5,47,24,9,29.81,29.81,8,2,15,0.00
2013-10-18,75,54,34,24,17,11,45,25,11,29.81,29.81,6,2,9,0.00
2013-10-19,76,55,35,20,16,13,41,23,10,29.81,29.81,6,2,10,0.00
2013-10-20,77,57,36,24,14,4,42,22,6,29.81,29.81,9,3,14,0.00
2013-10-21,78,56,36,20,14,10,36,21,8,29.81,29.81,6,2,13,0.00
2013-10-22,78,58,42,30,21,12,50,26,11,29.81,29.81,7,2,11,0.00
2013-10-23,81,61,42,37,28,21,47,31,17,29.81,29.81,6,2,11,0.00
2013-10-24,83,65,44,42,32,25,52,31,16,29.81,29.81,14,3,23,0.00
2013-10-25,80,61,43,31,24,18,44,27,11,29.81,29.81,9,3,11,0.00
2013-10-26,77,58,39,31,24,19,51,30,12,29.81,29.81,5,2,12,0.00
2013-10-27,81,62,43,36,28,21,56,31,14,29.81,29.81,10,3,18,0.00
2013-10-28,74,64,49,30,26,19,41,25,13,29.81,29.81,15,6,22,0.00
2013-10-29,75,64,55,39,30,22,54,29,16,29.81,29.81,16,5,22,0.00
2013-10-30,67,55,40,41,36,27,73,49,32,29.81,29.81,18,5,25,0.00
2013-10-31,69,49,30,30,20,1,78,39,7,29.81,29.81,11,2,14,0.00
2013-11-1,70,49,30,24,17,11,47,30,14,29.81,29.81,6,2,8,0.00
2013-11-2,76,54,35,27,17,13,44,26,9,29.81,29.81,11,2,13,0.00
2013-11-3,73,61,46,53,42,27,85,51,25,29.81,29.81,15,5,27,0.02
2013-11-4,73,59,40,45,39,34,83,51,30,29.81,29.81,10,2,22,0.00
2013-11-5,66,55,39,43,36,31,72,51,30,29.81,29.81,10,3,19,0.00
2013-11-6,66,48,34,31,22,15,78,40,15,29.81,29.81,7,3,13,0.00
2013-11-7,72,50,32,28,18,9,47,30,16,29.81,29.81,8,2,14,0.00
2013-11-8,73,53,37,35,28,23,60,40,24,29.81,29.81,5,2,8,0.00
2013-11-9,74,54,37,36,31,25,65,43,23,29.81,29.81,6,2,8,0.00
2013-11-10,78,58,40,37,31,27,63,40,21,29.81,29.81,6,2,9,0.00
2013-11-11,78,59,45,40,35,31,63,42,23,29.81,29.81,9,3,14,0.00
2013-11-12,75,59,46,43,37,30,67,47,29,29.81,29.81,19,5,22,0.00
2013-11-13,66,52,41,42,39,35,82,61,42,29.81,29.81,7,3,10,0.00
2013-11-14,46,42,40,38,36,35,84,79,73,29.81,29.81,4,3,5,0.00
2013-11-15,72,65,60,47,43,39,60,44,37,29.81,29.81,21,11,34,0.00
2013-11-16,71,60,48,46,39,29,73,47,21,29.81,29.81,17,5,24,0.00
2013-11-17,70,54,40,45,38,35,89,60,30,29.81,29.81,8,2,16,0.00
2013-11-18,72,56,43,47,37,31,76,51,27,29.81,29.81,8,3,14,0.00
2013-11-19,75,56,37,40,32,24,80,46,15,29.81,29.81,11,3,20,0.00
2013-11-20,73,57,40,37,32,23,65,42,15,29.81,29.81,12,3,21,0.00
2013-11-21,68,59,48,46,41,32,63,50,40,29.81,29.81,9,3,15,0.00
2013-11-22,66,55,46,54,47,40,92,73,47,29.81,29.81,15,5,27,0.26
2013-11-23,47,42,38,42,39,36,93,87,76,29.81,29.81,6,2,10,0.43
2013-11-24,44,37,33,37,33,29,93,87,76,29.81,29.81,8,5,11,0.00
2013-11-25,48,35,28,39,32,26,95,87,69,29.81,29.81,7,2,11,0.01
2013-11-26,57,42,30,37,29,24,90,65,34,29.81,29.81,9,2,14,0.00
2013-11-27,51,39,29,29,27,24,84,62,35,29.81,29.81,5,1,8,0.00
2013-11-28,60,42,27,36,29,22,84,64,37,29.81,29.81,5,3,7,0.00
2013-11-29,67,48,35,40,35,29,81,63,36,29.81,29.81,7,4,11,0.00
2013-11-30,66,51,39,41,38,35,87,65,34,29.81,29.81,5,2,8,0.00
2013-12-1,68,54,42,41,38,32,77,56,27,29.81,29.81,7,2,8,0.00
2013-12-2,70,50,30,38,25,8,83,47,9,29.81,29.81,8,2,12,0.00
2013-12-3,70,52,36,42,28,6,69,46,9,29.81,29.81,14,4,20,0.00
2013-12-4,65,56,46,43,35,21,70,49,20,29.81,29.81,24,10,42,0.00
2013-12-5,48,42,33,40,35,27,89,78,63,29.81,29.81,12,5,20,0.04
2013-12-6,46,34,24,30,26,20,88,72,46,29.81,29.81,4,1,9,0.00
2013-12-7,57,40,24,34,19,6,87,52,13,29.81,29.81,16,3,20,0.01
2013-12-8,52,44,37,34,28,17,70,56,41,29.81,29.81,11,4,16,0.00
2013-12-9,50,40,26,34,24,12,80,56,22,29.81,29.81,12,4,18,0.00
2013-12-10,49,34,24,17,13,10,66,43,24,29.81,29.81,10,3,13,0.00
2013-12-11,61,43,30,36,23,14,63,47,33,29.81,29.81,8,2,9,0.00
2013-12-12,60,48,38,44,34,19,86,61,36,29.81,29.81,8,3,12,0.00
2013-12-13,56,43,29,38,31,27,94,67,35,29.81,29.81,12,3,18,0.01
2013-12-14,56,39,25,33,25,20,86,60,24,29.81,29.81,12,3,16,0.00
2013-12-15,59,42,28,26,22,20,72,49,24,29.81,29.81,6,2,7,0.00
2013-12-16,66,45,29,27,22,19,68,44,17,29.81,29.81,6,4,7,0.00
2013-12-17,68,47,33,28,24,21,62,43,18,29.81,29.81,7,4,9,0.00
2013-12-18,65,50,36,26,24,18,58,38,17,29.81,29.81,6,2,9,0.00
2013-12-19,64,55,44,27,21,14,45,28,15,29.81,29.81,17,7,28,0.00
2013-12-20,50,42,37,40,33,21,88,71,32,29.81,29.81,14,2,33,0.16
2013-12-21,46,41,37,36,33,29,87,73,52,29.81,29.81,15,6,28,0.01
2013-12-22,50,38,29,36,30,25,91,72,41,29.81,29.81,10,2,15,0.00
2013-12-23,56,38,26,32,26,21,89,65,31,30.33,29.81,6,2,7,0.00
2013-12-24,57,39,22,30,24,17,83,57,30,30.33,30.31,6,3,10,0.00
2013-12-25,58,42,30,28,25,22,74,54,29,30.31,30.31,11,4,17,0.00
2013-12-26,54,38,28,28,23,20,80,57,28,30.31,30.31,8,3,13,0.00
2013-12-27,58,39,26,25,20,16,75,51,22,30.31,30.31,14,3,17,0.00
2013-12-28,57,40,22,28,22,15,79,51,30,30.31,30.31,4,1,8,0.00
2013-12-29,57,43,29,28,23,20,74,49,25,30.31,30.31,5,2,7,0.00
2013-12-30,59,40,28,27,22,18,74,51,20,30.31,30.31,6,3,7,0.00
2013-12-31,60,39,26,26,21,17,73,51,22,30.31,30.31,7,3,10,0.00
2014-1-1,65,41,25,26,21,18,77,49,19,30.31,30.31,7,2,8,0.00
2014-1-2,63,45,32,25,22,20,63,44,21,30.31,30.31,7,3,8,0.00